Regional Weather Roundup
Issued by NWS

Home | Current Version | Previous Version | Text Only | Print | Product List | Glossary On
Versions: 1 2 3 4 5 6 7 8 9 10 11 12 13 14 15 16 17 18 19 20 21 22 23 24 25 26 27 28 29 30 31 32 33 34 35 36 37 38 39 40 41 42 43 44 45 46 47 48 49 50
000
ASUS43 KMKX 261421
RWRWI

WISCONSIN REGIONAL WEATHER ROUNDUP
NATIONAL WEATHER SERVICE MILWAUKEE/SULLIVAN WI
900 AM CDT TUE JUL 26 2016

NOTE: "FAIR" INDICATES FEW OR NO CLOUDS BELOW 12,000 FEET WITH NO
SIGNIFICANT WEATHER AND/OR OBSTRUCTIONS TO VISIBILITY.

WIZ001-002-006>008-014>016-023>028-261500-
NORTHWEST WISCONSIN

CITY           SKY/WX    TMP DP  RH WIND       PRES   REMARKS
SUPERIOR ARPT  SUNNY     76  68  77 W5        29.98S
ASHLAND        CLOUDY    75  67  76 VRB3      30.00F
HAYWARD        CLOUDY    74  65  73 SW6       30.04F
SIREN          MOSUNNY   77  64  65 SW10G16   30.03F
CUMBERLAND     MOSUNNY   72  66  83 SW5       30.06S
RICE LAKE      PTSUNNY   74  67  80 SW3       30.07S
CHETEK         MOSUNNY   75  68  77 SW3       30.06S
LADYSMITH      MOSUNNY   75  66  73 SW8       30.08S
EAU CLAIRE     SUNNY     76  66  71 SW6       30.05F
MENOMONIE      SUNNY     79  69  71 SW6       30.06S HX  81
NEW RICHMOND   SUNNY     77  66  67 SW6       30.06S
OSCEOLA        MOSUNNY   76  68  74 SW5       30.07S
$$

WIZ003>005-009-010-017-018-261500-
NORTH CENTRAL WISCONSIN

CITY           SKY/WX    TMP DP  RH WIND       PRES   REMARKS
MANITOWISH WTR PTSUNNY   72  67  87 W6        30.07R
ARBOR VITAE    MOSUNNY   77  68  74 W5        30.07S
WOODRUFF       MOSUNNY   77  68  74 W5        30.07S
RHINELANDER    SUNNY     75  64  68 W9        30.08F
EAGLE RIVER    SUNNY     74  64  69 W6        30.06S
LAND O LAKES   MOSUNNY   75  65  70 W6        30.07R
PHILLIPS       CLOUDY    74  67  80 CALM      30.06F
TOMAHAWK       SUNNY     75  65  71 CALM      30.08S
MEDFORD        SUNNY     74  69  85 SW5       30.08F
MERRILL        SUNNY     75  67  76 W5        30.08S
$$

WIZ029-030-035-036-043>047-261500-
CENTRAL WISCONSIN

CITY           SKY/WX    TMP DP  RH WIND       PRES   REMARKS
WAUSAU         SUNNY     76  64  66 VRB3      30.06F
MOSINEE        SUNNY     75  64  69 W6        30.09F
MARSHFIELD     SUNNY     77  64  64 W5        30.08S
STEVENS POINT  SUNNY     75  63  66 W3        30.09S
WAUPACA        SUNNY     79  65  61 CALM      30.08S HX  81
WAUTOMA        SUNNY     77  67  71 W3        30.08S
WISC RAPIDS    SUNNY     78  64  61 VRB3      30.09F HX  80
CAMP DOUGLAS   SUNNY     73  70  88 CALM      30.08S
$$

WIZ011>013-019>022-031-037>040-048>050-261500-
NORTHEAST WISCONSIN

CITY           SKY/WX    TMP DP  RH WIND       PRES   REMARKS
ANTIGO         SUNNY     74  65  75 CALM      30.09S
SHAWANO        SUNNY     77  66  68 W3        30.06F
OCONTO         SUNNY     75  67  75 W5        30.04S
STURGEON BAY   SUNNY     77  67  71 W7        30.05F
GREEN BAY      SUNNY     76  69  79 W5        30.06S
MANITOWOC      SUNNY     77  64  64 W5        30.07S
APPLETON       MOSUNNY   73  63  68 CALM      30.06S
CLINTONVILLE   SUNNY     77  63  61 W5        30.06S
OSHKOSH        SUNNY     75  65  70 CALM      30.07S
$$

WIZ032>034-041-042-053>061-261500-
SOUTHWEST WISCONSIN

CITY           SKY/WX    TMP DP  RH WIND       PRES   REMARKS
LA CROSSE      SUNNY     74  68  81 VRB5      30.08S
SPARTA         SUNNY     72  66  82 CALM      30.09S
VIROQUA        SUNNY     74  68  80 CALM      30.10S
BOSCOBEL       MOSUNNY   69  67  93 CALM      30.09S
PRAIRIE DU CHI CLOUDY    69  67  95 CALM      30.08S FOG
PLATTEVILLE    SUNNY     75  69  81 CALM      30.09S
$$

WIZ056-057-062-063-064-067-068-261500-
SOUTH CENTRAL WISCONSIN

CITY           SKY/WX    TMP DP  RH WIND       PRES   REMARKS
REEDSBURG      SUNNY     74  67  80 CALM      30.09S
BARABOO/DELLS  SUNNY     75  66  72 CALM      30.09S
LONE ROCK      MOSUNNY   69  67  93 SW3       30.09S
MINERAL POINT  SUNNY     77  66  69 CALM      30.09F
MADISON        SUNNY     77  67  71 CALM      30.08S
MIDDLETON      SUNNY     77  69  75 CALM      30.09S
WATERTOWN      SUNNY     75  67  74 CALM      30.08S
MONROE         SUNNY     75  63  64 NE5       30.09S
JANESVILLE     SUNNY     79  64  61 N7        30.07F HX  81
$$

WIZ051-052-058>065-066-070>072-261500-
SOUTHEAST WISCONSIN

CITY           SKY/WX    TMP DP  RH WIND       PRES   REMARKS
MILWAUKEE      MOSUNNY   81  61  50 NE7       30.07S HX  82
WAUKESHA       SUNNY     73  63  68 CALM      30.10R
MILWAUKEE/TIMM SUNNY     79  59  50 CALM      30.08S HX  80
RACINE         SUNNY     80  64  58 NE5       30.08S HX  82
BURLINGTON     SUNNY     76  65  68 NW3       30.08R
KENOSHA        SUNNY     78  66  66 NW3       30.07F HX  80
FOND DU LAC    SUNNY     76  66  71 CALM      30.08S
SHEBOYGAN      SUNNY     78  65  63 NW5       30.07S HX  80
WEST BEND      SUNNY     77  63  61 N3        30.08S
JUNEAU         SUNNY     73  66  79 CALM      30.09F
$$

LSZ147-162-261500-
LAKE SUPERIOR

STATION/POSITION TIME  TEMP    WIND        PRES    WAVE
                       AIR SEA DIR/SP/G            HT/PER
                 (UTC) (F)     (DEG/KT/KT) (MB)    (FT/S)
W MID LAKE BUOY  1350   63 60  160/  4/  4 1014.1F   1
DEVILS ISLAND    1400   73     180/  9/ 10 1014.5F
SAXON HARBOR     1340   74      80/  2/  5 1015.9S
$$

LMZ867-665-643>646-261500-
LAKE MICHIGAN

STATION/POSITION TIME  TEMP    WIND        PRES    WAVE
                       AIR SEA DIR/SP/G            HT/PER
                 (UTC) (F)     (DEG/KT/KT) (MB)    (FT/S)
CHAMBERS ISLAND  1300   75     210/  2/  6 1016.9S
S GREEN BAY BUOY 1400   72 73  220/  6/  8   N/A
N MID LAKE BUOY  1350   70 70  220/  6/  6 1016.1F   1
NORTHPORT PIER   1300   75     260/  4/  8 1016.9R
SISTER BAY       1321   82     270/  7/  8   N/A
ALGOMA LAKESHORE 1313             CALM       N/A
KEWAUNEE LAKESHO 1300   73     310/  3/  6 1017.2R
SHEBOYGAN LAKESH 1400   76     360/  4/  4 1018.1S
PORT WASHINGTON  1340   80     330/  4/  8 1018.6S
ATWATER BUOY     1400   67 56  150/  2/  2 1019.8S
MILWAUKEE LAKESH 1410   73      70/  4/  4   N/A
S MID LAKE BUOY  1350   73 73  320/  4/  6 1017.3S   0
KENOSHA   LAKESH 1400   74      20/  3/  3 1017.6F
$$

TC  - TEMPERATURE IN CELSIUS
VSB - VISIBILITY IN STATUTE MILES
WCI - WIND CHILL INDEX
HX  - HEAT INDEX





USA.gov is the U.S. government's official web portal to all federal, state and local government web resources and services.